FENGYUN 1C DEB

Satellite information

Favourite Embed

Satellite Type and Status

DEBRISIN ORBIT

Key statistics

Satellite FENGYUN 1C DEB at a glance.

Uptime

9610

Days in orbit

Revolutions

≈ 14.0

Per day

Orbit

SSO

Sun Synchronous Orbit

Inclination

98.7

Latest

Satellite identification and parameters

Extended collection of information and parameters for FENGYUN 1C DEB.

Object identification

Identified? True

Debris? True

Object name: FENGYUN 1C DEB

International designator: 1999-025DL

Object number (NORAD): 29818

Object ID (CCSDS): 29818

Country: PEOPLES REPUBLIC OF CHINA (PRC)

Current information (Y/N): Y

RCS size: MEDIUM

Orbital parameters

Period: 102.535 minutes

Inclination: 98.7345 deg

SMA: 7256.725 km

Apoapsis: 961.47 km

Periapsis: 795.71 km

RAAN: 124.2105 deg

Eccentricy: 0.01142107

Argument of periapsis: 317.4269 deg

Mean anomaly: 57.8602 deg

Mean motion: 14.04403054 rev/day

Mean motion (dot): 0.00000456 rev/day2

B* drag term: 0.00029588178 1/REarth

Two-line elements (TLE)

Creation date: Aug. 31, 2025, 2:26 a.m.

Reference frame: TEME

Reference center: EARTH

Epoch: Aug. 30, 2025, 9:35 p.m. UTC

TLE line 0: 0 FENGYUN 1C DEB

TLE line 1: 1 29818U 99025DL 25242.89993356 .00000456 00000-0 29588-3 0 9990

TLE line 2: 2 29818 98.7345 124.2105 0114211 317.4269 57.8602 14.04403054953520

Live tracking on map

Real-time ground track for satellite FENGYUN 1C DEB.

In-orbit conjunctions

A list of the most updated potential collisions computed for object FENGYUN 1C DEB.

Target Orbit TCA Probability of collision Miss distance Type
NIMBUS 2 DEB SSO 2024-11-14 21:23:54 0.0006695803 361.0 (m) DEBRIS
CZ-6A DEB LEO 2024-10-19 21:47:08 0.0001048308 741.0 (m) DEBRIS

Associated space launch

Chinese polar orbiting meteorological satellite

FENGYUN 1C DEB was lifted into orbit during the mission ‘Long March 4B | Feng Yun 1C’, on board a Long March 4B space rocket.

The launch took place on May 10, 1999, 1:33 a.m. from Launch Complex 7.

For more information about the launch, click the button.

Launch to space Long March 4B | Feng Yun 1C
Long March 4B | Feng Yun 1C

Agency: N/A

Status: Launch Successful

Launch date: May 10, 1999, 1:33 a.m. UTC

Rocket: Long March 4B

Launch pad: Launch Complex 7

Location: Taiyuan Satellite Launch Center, People's Republic of China

...

Latest news about this satellite

There are no fresh news available about this satellite. Check back as we update our databases every day.


Newsletter sign-up

Weekly statistics, charts and insights to help you stay on top of the space industry.